EW5770 Weather Reports


time (UTC)temp
F
wind
direction
speed
knots
gust
knots
rain 1hr
in
rain 24hr
in
rain mn
in
humidity
%
barometer
mb
20260902172220 78 225 0.0 0.9 0.00 0.00 0.00 80 1016.6
20260902171220 79 0 0.0 0.0 0.00 0.00 0.00 78 1016.5
20260902170220 79 0 0.0 0.0 0.00 0.00 0.00 78 1016.5
20260902165221 80 0 0.0 0.0 0.00 0.00 0.00 77 1016.5
20260902164220 81 232 0.0 0.9 0.00 0.00 0.00 75 1016.5
20260902162221 83 238 0.0 0.9 0.00 0.00 0.00 72 1016.6
20260902160220 83 208 0.0 0.9 0.00 0.00 0.00 72 1016.7
20260902155220 83 0 0.0 0.0 0.00 0.00 0.00 71 1016.7
20260902154221 82 213 0.0 0.9 0.00 0.00 0.00 72 1016.7
20260902153221 83 183 0.0 0.9 0.00 0.00 0.00 72 1016.7
20260902152221 83 85 0.0 0.9 0.00 0.00 0.00 73 1016.8
20260902151220 82 0 0.0 0.0 0.00 0.00 0.00 73 1016.9
20260902150220 83 0 0.0 0.0 0.00 0.00 0.00 73 1017.0
20260902145220 83 236 0.0 0.9 0.00 0.00 0.00 73 1016.9
20260902144221 82 116 0.0 1.7 0.00 0.00 0.00 74 1016.9
20260902142221 83 236 0.0 0.9 0.00 0.00 0.00 72 1016.9
20260902140221 83 250 0.0 1.7 0.00 0.00 0.00 72 1017.1
20260902135221 83 171 0.0 0.9 0.00 0.00 0.00 73 1017.1
20260902134220 83 169 0.0 4.3 0.00 0.00 0.00 73 1017.3
20260902133220 82 237 0.0 3.5 0.00 0.00 0.00 73 1017.4
20260902131221 83 238 0.0 3.5 0.00 0.00 0.00 72 1017.4
20260902130220 83 226 0.0 0.9 0.00 0.00 0.00 73 1017.4
20260902124221 82 245 0.0 0.9 0.00 0.00 0.00 72 1017.5
20260902123221 83 181 0.0 0.9 0.00 0.00 0.00 72 1017.6
20260902122221 83 230 0.0 0.9 0.00 0.00 0.00 72 1017.7
20260902121220 83 234 0.0 0.9 0.00 0.00 0.00 72 1017.8
20260902120220 82 0 0.0 0.0 0.00 0.00 0.00 73 1017.9
20260902114220 82 0 0.0 0.0 0.00 0.00 0.00 74 1018.1
20260902113220 82 222 0.0 0.9 0.00 0.00 0.00 75 1018.1
20260902112220 82 218 0.0 0.9 0.00 0.00 0.00 75 1018.1
20260902111220 82 244 0.0 0.9 0.00 0.00 0.00 74 1018.1
20260902110220 81 246 0.0 0.9 0.00 0.00 0.00 76 1018.2
20260902104221 81 270 0.0 0.9 0.00 0.00 0.00 75 1018.2
20260902103222 83 188 0.0 1.7 0.00 0.00 0.00 73 1018.4
20260902102221 82 198 0.0 3.5 0.00 0.00 0.00 75 1018.4
20260902101221 81 230 0.0 0.9 0.00 0.00 0.00 74 1018.5
20260902100221 82 228 0.0 1.7 0.00 0.00 0.00 72 1018.5
20260902095221 82 0 0.0 0.0 0.00 0.00 0.00 72 1018.4
20260902094221 83 220 0.0 0.9 0.00 0.00 0.00 71 1018.4
20260902093221 83 193 0.0 0.9 0.00 0.00 0.00 70 1018.4
20260902092220 84 225 0.0 0.9 0.00 0.00 0.00 67 1018.3
20260902091221 83 0 0.0 0.0 0.00 0.00 0.00 66 1018.3
20260902090224 83 0 0.0 0.0 0.00 0.00 0.00 67 1018.4
20260901190206 76 0 0.0 0.0 0.00 0.00 0.00 83 1016.9
20260901184157 77 0 0.0 0.0 0.00 0.00 0.00 82 1016.7
20260901182212 78 0 0.0 0.0 0.00 0.00 0.00 80 1016.6
20260901181206 78 0 0.0 0.0 0.00 0.00 0.00 79 1016.5
20260901180206 79 0 0.0 0.0 0.00 0.00 0.00 78 1016.4
20260901174206 79 0 0.0 0.0 0.00 0.00 0.00 77 1016.3
20260901173207 80 0 0.0 0.0 0.00 0.00 0.00 77 1016.3